This is the latest recevied weather packets stored in our database for station/object W5GMO. If no packets are shown the sender has not sent any weather packets the latest 10 day(s).
| Time | Temp. | Humidity | Pressure | Rain* | Wind** | Luminosity | Snow |
|---|---|---|---|---|---|---|---|
| 1788500387 | 22.22° C | 1% | 1013.4 hPa | 0 mm | - | 0 W/m² | - |
| 1788500086 | 22.22° C | 1% | 1013.4 hPa | 1.78 mm | - | 0 W/m² | - |
| 1788499782 | 21.67° C | 1% | 1013.5 hPa | 1.78 mm | - | 0 W/m² | - |
| 1788499478 | 21.67° C | 1% | 1014 hPa | 0 mm | - | 0 W/m² | - |
| 1788499174 | 21.67° C | 1% | 1013.5 hPa | 1.27 mm | - | 0 W/m² | - |
| 1788498871 | 22.22° C | 1% | 1013.4 hPa | 1.27 mm | - | 0 W/m² | - |
| 1788498569 | 21.67° C | 1% | 1013.3 hPa | 0 mm | - | 0 W/m² | - |
| 1788498266 | 21.67° C | 1% | 1013.6 hPa | 0 mm | - | 0 W/m² | - |
| 1788497966 | 21.67° C | 1% | 1014.2 hPa | 0 mm | - | 0 W/m² | - |
| 1788497661 | 21.67° C | 1% | 1014.4 hPa | 0 mm | - | 0 W/m² | - |
| 1788497360 | 21.67° C | 1% | 1014.7 hPa | 0 mm | - | 0 W/m² | - |
| 1788497057 | 21.67° C | 1% | 1015.1 hPa | 0 mm | - | 0 W/m² | - |
| 1788496753 | 21.67° C | 1% | 1015.6 hPa | 0 mm | - | 0 W/m² | - |
| 1788496449 | 21.67° C | 1% | 1016.1 hPa | 0 mm | - | 0 W/m² | - |
| 1788496144 | 21.67° C | 1% | 1016 hPa | 0 mm | - | 0 W/m² | - |
| 1788495841 | 21.67° C | 1% | 1016.1 hPa | 1.78 mm | - | 0 W/m² | - |
| 1788495535 | 21.67° C | 1% | 1016.3 hPa | 6.6 mm | - | 0 W/m² | - |
| 1788495231 | 21.67° C | 1% | 1016.3 hPa | 14.99 mm | - | 0 W/m² | - |
| 1788494928 | 21.11° C | 1% | 1016.7 hPa | 22.86 mm | - | 0 W/m² | - |
| 1788494622 | 21.11° C | 1% | 1016.8 hPa | 25.91 mm | - | 0 W/m² | - |
| 1788494318 | 21.11° C | 1% | 1017.8 hPa | 13.72 mm | - | 0 W/m² | - |
| 1788494014 | 22.22° C | 1% | 1018.7 hPa | 7.87 mm | - | 0 W/m² | - |
| 1788493713 | 28.89° C | 1% | 1017.5 hPa | 4.32 mm | - | 0 W/m² | - |
| 1788493408 | 28.89° C | 1% | 1015.1 hPa | 0 mm | - | 0 W/m² | - |
| 1788493104 | 28.89° C | 1% | 1014.2 hPa | 0 mm | - | 0 W/m² | - |
* Rain latest hour (hover to see other rain measurements)
** Current wind speed in m/s (hover to see current wind gust speed)